Weather in Kayyerkan

Russia / Krasnoyarsk Krai     69°21′05″N   87°46′01″E
temp.,
°C
wind,
m/s
gust,
m/s
humid.,
%
clouds,
%
prec.,
mm/h
press.,
hPa
HPBL,
m
28 february, sun
sun2801:00−35ssw12920 0.0 102819
04:00−36ssw11980 0.0 102819
07:00−36ssw11970 0.0 102919
10:00−36s11900 0.0 102919
13:00−33sw11860 0.0 103020
16:00−34s12830 0.0 103019
19:00−36sse22820 0.0 103119
22:00−36sse22820 0.0 103119
1 march, mon
mon101:00−36se22810 0.0 103119
04:00−36se22800 0.0 103019
07:00−36se22800 0.0 103019
10:00−36ese22800 0.0 102919
13:00−33ese22830 0.0 102723
16:00−33ese228325 0.0 102722
19:00−33ese228359 0.0 102720
22:00−33ese228687 0.0 102520
2 march, tue
tue201:00−34ese228785 0.0 102419
04:00−32ese229290 0.0 102435
07:00−33ese229485 0.0 102419
10:00−33ese329386 0.0 102323
13:00−31e229178 0.0 102352
16:00−30e229158 0.0 102324
19:00−31ese339265 0.0 102420
22:00−31ese239182 0.0 102319
3 march, wed
wed301:00−31ese339187 0.0 102321
04:00−29e338997 0.0 102343
07:00−29ese338996 0.0 102339
10:00−27ese349093 0.0 1022118
13:00−25ese359294 0.0 1022234
16:00−23ese2589100 0.0 1022228
19:00−25ese238999 0.0 102258
22:00−25ese2486100 0.0 102174
4 march, thu
thu401:00−24se2481100 0.0 102285
04:00−24ese3577100 0.0 1021143
07:00−24se3678100 0.0 1020170
10:00−23se3678100 0.0 1020199
13:00−20se51273100 0.0 1019619
16:00−19se41280100 0.0 1019611
19:00−21se3686100 0.0 1018189
22:00−20se3887100 0.0 1017266